RH
10 10 10 10 10 10 10 10 10 10 11 11 11 11 10 11 10 10 11 11 11 9 9 10 10 11 10 10 8 7 6 5 5 6 7 6 8 10 10 12 12 17 20 22 30 37 38 36 35 35 38 45 52 59 64 68 73 78 80 84 80 82 82 74 75 73 65 58 54 51 50 53 50 50 51 51 56 53 54 56 51 52 45 37 34 32 33 34
11 10 10 10 10 10 10 10 10 10 10 10 11 10 10 10 9 10 10 10 11 10 9 9 10 11 11 11 10 8 7 6 5 6 7 5 6 6 9 11 11 15 18 23 31 34 34 33 32 34 39 51 61 62 65 68 71 75 79 83 80 85 86 77 75 71 66 59 52 49 47 51 48 43 47 49 48 48 53 53 49 49 45 39 32 31 34 34
12 11 11 11 11 10 11 10 10 10 10 10 10 10 10 10 9 9 9 10 10 9 9 9 10 10 11 11 11 10 8 7 7 8 7 5 4 5 7 9 11 14 17 24 30 31 31 32 30 34 43 55 66 66 65 69 72 74 79 85 81 82 83 79 79 74 69 59 47 48 46 45 45 43 48 47 44 50 55 51 45 42 39 36 32 32 33 32
12 12 11 11 11 10 11 11 10 9 9 9 9 9 10 10 9 9 9 9 9 9 9 9 9 9 10 10 11 11 10 10 10 12 10 6 4 4 6 7 10 12 16 24 27 28 29 30 29 35 49 59 66 68 67 69 72 74 79 86 82 79 81 78 78 74 67 59 49 48 44 40 42 44 46 46 48 55 56 51 44 38 34 33 32 32 32 33
12 11 11 11 11 11 11 11 9 8 8 8 8 8 9 9 9 9 9 8 8 8 9 9 9 9 9 10 11 12 12 12 12 13 10 6 5 4 5 6 9 10 16 24 25 26 27 30 30 34 52 62 65 68 68 69 70 73 78 82 79 78 80 76 75 72 64 61 55 47 44 41 41 44 45 46 50 53 54 52 46 38 32 28 28 31 32 33
12 11 11 11 10 11 11 10 9 8 8 8 8 8 9 8 8 9 8 8 8 7 8 8 9 9 9 10 10 11 15 14 13 13 9 7 6 4 4 5 8 10 17 24 24 24 25 29 31 35 50 59 64 67 68 71 70 72 76 79 79 76 78 76 75 73 66 65 61 52 47 42 42 45 46 48 51 50 51 51 45 38 32 28 27 30 33 34
12 11 11 11 11 11 11 10 9 8 8 8 8 8 8 8 8 8 8 8 8 8 7 7 8 8 8 9 10 13 17 14 14 14 9 9 7 4 4 5 7 10 18 23 22 23 24 28 31 38 48 54 62 65 66 72 73 72 74 79 80 76 77 78 77 76 68 68 66 55 48 46 46 47 47 49 52 50 49 47 42 37 33 31 29 30 33 33
12 12 11 11 11 11 11 10 9 8 8 8 8 8 8 8 8 8 8 8 8 8 8 7 7 7 8 8 11 17 17 13 15 15 10 10 7 4 4 5 6 11 18 21 22 22 22 26 31 39 47 53 62 67 67 70 72 74 75 77 77 76 79 78 77 77 71 69 68 56 48 51 48 44 48 50 49 48 46 42 39 36 34 33 31 31 33 34
12 12 11 12 11 11 12 11 9 8 8 8 8 8 8 8 8 8 9 8 8 8 8 7 6 7 7 7 12 17 16 15 17 14 11 11 8 5 4 4 6 12 18 19 21 22 22 26 32 39 50 59 64 66 66 66 69 75 77 77 75 76 80 80 77 77 76 71 66 58 52 52 46 44 51 53 48 44 42 39 37 36 35 35 35 33 33 33
12 12 12 12 11 12 12 11 10 8 8 8 8 9 9 9 8 9 8 8 8 8 8 7 6 6 6 8 13 16 15 16 18 15 13 12 9 6 5 6 7 13 16 16 20 21 23 27 30 40 53 61 64 61 60 60 64 71 74 77 77 76 80 82 79 79 81 74 65 63 59 52 47 50 55 54 50 41 38 40 37 36 37 38 39 34 32 33
12 12 12 12 12 12 12 12 10 8 9 8 9 9 9 9 9 8 8 8 8 8 8 7 6 6 6 10 14 16 15 15 18 19 16 13 10 7 7 9 10 13 14 14 19 21 24 27 30 42 53 58 60 56 52 51 59 69 73 76 77 77 81 83 82 82 81 76 71 68 62 54 50 57 58 51 49 44 40 41 39 39 40 39 39 34 33 34
12 12 12 12 12 12 12 12 10 9 9 9 10 10 10 10 10 9 9 9 9 9 9 8 7 5 6 11 13 14 14 15 18 20 17 15 14 10 8 10 10 12 12 14 19 20 23 27 30 42 51 53 54 53 48 45 56 69 73 77 79 77 80 82 83 84 80 79 77 69 66 61 54 59 59 49 46 48 44 42 42 43 41 39 39 35 35 36
12 12 12 12 13 12 12 12 11 9 9 10 11 11 11 11 11 11 10 10 10 10 10 10 9 6 9 14 12 10 12 14 17 20 18 18 17 13 9 10 10 11 12 16 19 19 22 26 30 42 50 52 51 50 49 50 59 68 69 73 79 79 81 82 83 84 82 83 80 72 71 67 60 57 54 47 46 49 47 43 44 45 43 41 39 37 37 37
11 12 12 12 13 12 12 12 11 9 10 10 10 11 11 11 11 11 11 12 12 12 12 11 10 9 14 14 10 8 10 14 18 19 19 19 19 15 11 9 10 12 13 17 20 18 20 24 31 44 52 51 49 46 48 57 63 66 70 74 77 81 83 82 83 85 82 82 81 76 74 71 66 56 47 46 46 48 49 45 45 45 46 44 39 39 40 37
11 12 12 13 13 12 11 11 10 10 11 10 10 11 11 11 11 11 12 13 13 14 13 12 11 12 15 14 11 8 10 16 19 18 18 18 18 15 11 9 10 12 12 16 19 19 20 21 30 45 52 50 47 44 49 63 67 65 72 76 78 81 84 83 84 85 83 83 82 79 77 74 70 56 45 47 45 47 52 50 48 45 46 45 39 41 42 38
11 11 12 12 13 12 11 11 10 11 11 11 11 11 11 11 11 11 12 13 15 15 14 16 17 16 18 19 14 9 12 19 19 17 17 16 17 14 11 9 10 12 12 16 18 18 18 19 30 44 48 46 44 43 49 64 71 72 74 75 78 80 82 85 85 83 84 87 85 82 82 77 71 58 47 47 45 48 54 54 54 49 47 46 41 44 45 41
11 12 12 12 13 12 11 11 10 11 12 12 12 12 12 11 11 11 11 13 15 15 15 19 20 18 20 18 13 12 17 22 19 18 18 17 18 15 11 10 10 11 12 13 15 16 15 19 31 41 43 42 42 43 51 64 70 74 73 72 78 81 81 86 85 83 85 87 84 83 86 79 71 61 51 48 45 48 52 55 57 53 50 47 43 46 47 44
11 12 12 12 13 11 11 11 11 12 12 12 13 13 13 12 14 15 13 12 13 18 23 21 19 23 21 15 16 21 23 22 19 20 19 19 20 15 12 11 10 10 12 13 13 13 14 20 32 39 39 40 42 43 50 62 68 72 73 72 78 81 82 84 84 84 85 87 84 82 86 83 74 65 57 51 46 47 50 52 55 55 54 51 47 48 47 45
11 11 12 12 12 11 11 10 11 12 13 14 14 13 15 18 22 24 20 16 16 26 32 24 21 27 24 17 21 25 24 21 19 21 23 22 21 15 11 10 10 11 13 14 12 13 14 20 31 37 37 38 41 42 46 59 66 69 72 73 76 80 81 83 83 82 82 86 88 84 87 88 79 70 62 54 49 51 52 49 53 56 56 54 50 51 50 48
10 11 12 12 12 11 11 11 12 13 14 14 14 16 22 25 26 29 27 20 18 19 23 22 19 24 26 23 23 22 20 20 22 25 25 24 21 16 13 11 11 12 14 15 13 12 14 20 29 32 36 40 42 42 44 54 59 64 75 75 74 77 80 82 82 83 81 83 87 86 87 87 83 78 70 59 52 55 54 48 53 58 56 54 54 55 53 49
10 10 12 12 11 11 11 12 13 13 14 15 16 19 26 24 20 22 22 21 21 15 16 19 17 23 27 25 23 21 22 23 27 28 25 25 24 19 16 12 12 12 13 16 13 12 14 18 26 29 37 44 43 41 42 49 54 60 74 77 74 79 83 82 81 82 84 85 87 87 86 87 85 82 76 65 57 56 54 49 53 58 55 55 59 57 51 49
10 10 12 11 11 10 10 12 13 14 16 18 19 20 25 24 16 15 17 22 24 15 14 16 14 20 22 20 22 23 25 24 26 28 25 25 24 21 19 14 13 12 12 16 14 12 13 16 23 31 38 41 38 36 39 48 52 53 66 74 77 81 81 81 81 79 81 85 89 88 86 89 89 84 77 68 58 55 56 52 52 54 53 55 61 58 51 51
10 10 11 11 10 10 10 13 15 18 19 20 21 21 25 24 17 16 19 28 28 14 13 16 15 18 18 18 20 19 25 25 23 26 23 23 23 22 21 16 14 12 13 17 15 15 16 14 24 35 39 38 37 35 37 45 47 48 64 73 78 81 76 78 81 79 80 83 88 88 88 91 92 90 81 69 61 55 54 54 53 53 52 54 60 56 51 51
10 10 11 10 10 10 12 15 18 20 21 21 22 22 24 22 17 18 21 30 31 18 15 16 16 22 23 21 19 19 30 32 24 23 19 20 23 21 21 19 17 14 14 16 16 19 19 16 24 36 38 38 38 35 35 42 41 44 60 68 71 75 73 75 79 81 84 84 85 88 91 92 91 92 86 73 67 59 51 53 54 55 52 51 57 55 50 50
9 10 10 9 10 11 14 19 21 22 23 23 24 24 22 20 20 22 25 33 35 23 19 18 17 24 23 20 21 27 39 38 28 23 17 17 21 20 21 21 19 17 15 15 16 18 18 20 27 34 38 39 39 34 33 40 40 40 50 56 62 68 69 72 76 79 84 86 86 85 88 93 92 91 89 79 72 62 50 50 53 54 52 50 55 55 51 52
10 10 9 9 10 12 16 22 24 24 26 26 26 24 21 21 23 29 37 44 39 27 25 26 25 27 23 20 23 28 38 39 30 22 16 17 20 20 22 22 20 18 15 14 16 16 18 25 30 33 36 38 37 33 31 35 39 39 43 47 55 65 68 71 75 77 79 83 85 82 83 92 92 88 88 81 75 67 53 49 52 50 49 50 53 52 50 53
10 9 9 9 11 14 18 23 24 24 28 27 25 22 21 25 29 37 49 51 39 29 28 28 27 28 28 25 24 27 38 42 30 20 17 18 20 20 22 23 21 19 16 16 16 15 21 28 30 32 36 39 35 31 30 32 36 40 41 43 50 61 67 70 75 79 79 82 86 84 83 91 91 85 85 80 76 76 62 51 51 47 46 48 50 49 47 52
10 9 8 9 13 17 20 21 23 24 27 27 23 20 22 29 36 44 55 53 40 29 26 25 24 26 28 25 25 32 41 40 30 23 19 19 22 22 23 23 22 21 18 16 14 14 23 32 32 30 35 39 34 32 32 30 34 38 37 40 46 58 70 74 77 79 79 81 86 87 83 87 90 84 84 83 77 79 71 55 50 47 47 46 45 47 45 48
10 8 8 11 14 19 20 21 22 24 25 25 24 24 28 36 42 50 57 49 35 27 27 27 27 28 27 24 28 34 38 38 35 29 20 20 23 23 25 25 23 25 23 16 17 23 27 31 31 29 33 37 32 32 34 31 36 38 34 38 47 61 74 75 75 77 79 79 79 83 82 84 91 86 87 91 83 79 73 63 55 48 46 45 43 45 46 47
10 8 9 12 16 19 21 22 22 23 24 23 25 29 34 41 48 54 51 37 28 27 27 28 30 32 31 28 28 30 36 43 41 31 23 25 26 22 26 27 22 29 29 19 25 37 32 27 29 27 29 34 31 32 32 30 34 36 36 42 48 59 70 69 70 77 82 82 77 80 80 82 92 90 84 86 84 79 74 69 64 53 46 45 43 43 46 49
10 8 10 14 18 19 22 22 23 24 23 22 27 33 38 45 51 52 38 25 27 28 25 29 33 34 34 34 32 29 34 43 42 33 28 27 26 24 28 29 24 30 32 22 26 36 31 27 28 23 24 29 30 31 30 28 31 32 38 47 50 56 64 68 74 76 79 82 79 78 77 80 91 91 82 80 78 77 76 71 66 61 55 48 44 43 46 50
9 8 11 16 18 20 22 22 23 23 21 22 29 36 46 51 47 42 30 24 31 29 27 35 35 31 33 36 36 31 30 38 39 34 31 27 25 26 27 30 28 31 32 24 22 27 28 29 26 20 20 24 27 28 25 26 28 31 39 48 51 53 58 66 73 71 71 74 73 75 79 81 85 82 78 79 76 73 76 74 67 65 63 53 45 44 47 49
10 8 12 17 18 20 21 20 22 22 20 24 30 37 51 51 37 32 31 30 33 28 27 33 31 30 36 37 37 33 30 35 35 33 32 28 27 26 25 28 28 29 31 27 23 26 28 27 23 19 19 20 23 24 22 23 26 30 37 45 51 53 55 59 61 62 65 65 66 72 77 79 81 79 74 72 71 69 73 79 76 72 67 56 47 45 46 46
9 8 13 17 18 20 20 19 21 21 21 26 34 43 51 45 32 30 33 31 28 26 26 28 28 30 34 38 41 36 33 34 33 33 33 29 29 29 27 27 25 26 33 32 27 29 29 26 21 18 18 17 17 19 21 23 26 29 32 39 47 50 52 54 55 59 62 62 68 72 71 75 80 82 77 69 67 66 71 81 84 78 69 60 50 45 46 46
9 10 14 17 18 20 20 20 20 21 23 29 41 48 45 38 32 31 33 29 26 28 27 25 28 31 31 35 38 35 33 35 32 32 35 32 32 35 33 29 25 27 35 35 28 28 28 27 23 18 16 16 14 14 18 22 26 29 29 34 42 44 47 49 51 58 60 62 71 72 71 75 75 75 76 70 68 70 74 81 83 77 69 62 56 49 45 46
10 10 14 17 19 21 20 19 20 21 24 32 45 47 35 27 27 27 28 28 28 30 29 26 30 33 33 34 35 32 29 33 33 31 35 35 34 38 38 34 29 28 33 35 32 30 27 27 27 21 16 15 14 14 16 19 25 29 29 31 37 40 44 48 50 56 58 59 65 66 69 72 68 70 73 66 65 72 77 80 78 76 72 66 63 55 48 47
13 13 18 20 21 22 21 20 20 21 25 34 42 39 28 23 23 22 23 26 26 25 29 34 34 34 35 35 35 32 27 31 35 33 35 37 37 39 39 38 34 27 29 36 37 35 29 27 28 24 17 16 16 15 15 16 21 29 31 30 33 37 40 44 48 51 51 52 57 58 64 71 68 68 70 65 63 68 74 76 75 76 76 71 67 59 51 49
15 15 20 22 21 22 22 20 19 21 30 38 35 27 24 24 22 20 21 24 25 24 30 36 34 32 35 35 35 34 30 34 37 34 36 39 39 39 38 40 38 27 26 34 39 36 30 27 27 24 19 16 16 15 15 14 16 24 31 31 32 37 40 40 41 44 46 51 55 53 56 66 68 67 68 67 64 63 67 71 71 73 75 73 69 63 56 53
13 17 22 22 19 20 22 21 19 22 32 41 38 29 26 25 21 19 20 23 25 27 32 35 31 33 36 34 35 35 32 36 38 36 38 37 36 38 37 39 38 28 24 30 35 34 30 29 30 26 20 16 15 15 13 13 12 17 26 30 31 36 40 40 37 36 40 47 52 54 54 59 67 69 67 65 62 61 64 68 69 71 72 74 73 69 64 60
14 21 30 25 19 21 21 20 21 27 35 37 36 31 26 26 24 19 19 23 27 30 33 34 32 34 35 33 34 33 33 37 39 37 38 36 34 35 34 33 32 28 24 24 27 29 28 29 31 29 21 14 14 14 13 14 12 12 19 25 31 35 36 39 39 34 34 39 45 54 57 58 65 68 63 59 59 59 62 66 68 69 71 75 77 75 70 66
18 26 36 27 19 20 21 24 29 33 36 33 28 24 21 23 25 22 19 21 24 29 30 32 35 35 35 35 35 33 32 36 38 37 36 35 35 35 32 29 27 26 25 21 22 24 25 27 31 31 23 16 14 14 13 14 15 13 13 18 28 34 33 38 41 36 33 35 40 47 54 58 63 65 62 59 59 59 59 62 65 67 70 74 79 80 74 69
21 30 37 28 20 19 22 33 34 27 29 32 27 22 18 19 22 23 23 23 24 27 27 30 36 38 37 36 35 33 32 33 35 36 35 36 38 37 33 28 25 24 24 25 27 27 24 25 30 32 29 24 18 14 13 14 16 17 14 13 20 28 34 39 40 37 34 34 36 39 49 60 60 59 61 61 59 60 61 63 66 68 71 73 76 80 77 71
27 35 35 26 21 18 24 38 36 25 28 29 23 20 17 17 21 22 23 26 29 31 29 29 34 37 38 38 37 36 34 34 35 34 36 37 37 34 32 28 27 25 24 28 32 31 26 25 27 32 34 30 22 16 14 13 14 18 18 15 14 18 27 35 37 38 36 37 38 36 46 63 60 53 57 60 60 63 64 65 66 67 72 73 73 77 80 77
33 37 33 24 19 19 27 39 39 35 34 26 19 20 17 16 20 20 21 24 27 30 31 30 32 36 37 36 37 36 34 35 36 34 37 39 34 31 31 30 28 28 27 30 35 33 28 26 27 31 34 31 26 23 20 15 14 17 18 16 14 15 22 31 36 38 37 38 41 41 48 62 59 50 50 53 57 61 61 62 63 66 71 73 72 75 80 81
29 31 30 24 19 19 29 36 36 38 37 26 20 20 18 17 18 17 19 21 22 26 31 31 32 36 37 34 34 35 34 36 37 35 34 36 34 30 30 30 29 29 28 29 33 34 32 31 30 32 34 32 32 33 29 23 17 16 16 16 15 15 21 30 36 40 40 40 42 45 52 58 56 51 48 47 52 58 58 60 65 68 70 69 69 74 79 80
26 29 30 28 23 22 28 31 29 32 32 25 21 19 18 21 19 14 16 21 22 25 31 33 31 33 34 33 33 35 34 34 37 36 34 34 34 30 28 29 29 28 28 26 28 30 33 34 32 33 36 36 36 36 34 30 23 15 13 14 16 18 22 27 33 37 38 37 40 44 48 51 52 52 49 45 49 56 59 62 66 69 70 69 68 72 77 77
28 32 34 33 30 27 30 31 27 27 28 25 25 22 18 20 19 16 16 18 20 23 27 30 30 32 34 34 36 36 34 34 36 38 38 37 37 32 27 28 29 29 28 26 26 28 32 35 32 30 33 34 35 35 33 33 30 21 14 14 18 22 24 25 29 35 37 36 40 43 44 45 50 52 52 48 46 49 54 60 66 70 71 71 68 69 74 74
27 34 36 32 31 31 32 34 33 31 28 26 27 24 19 19 22 22 20 17 18 21 25 29 30 32 35 38 40 41 39 39 38 39 41 41 39 34 29 29 30 29 29 30 31 30 31 35 33 28 29 29 30 32 31 33 34 28 22 21 22 22 21 19 22 31 38 39 40 43 44 45 48 51 52 50 49 48 50 56 64 70 72 71 69 69 72 72
29 33 35 28 30 36 35 35 37 35 29 27 26 23 20 21 23 22 19 19 19 20 24 31 32 30 32 36 40 43 47 47 43 42 41 39 38 38 37 36 33 30 30 34 35 31 29 34 34 32 33 30 27 31 33 33 33 32 31 32 31 28 24 20 19 23 30 35 38 42 43 40 46 55 52 49 54 54 51 53 58 63 67 69 69 71 72 72
32 36 37 30 29 35 35 32 34 34 30 27 26 24 22 23 24 22 18 20 23 21 21 28 31 29 30 32 34 39 46 46 45 45 42 38 39 40 40 41 38 33 30 32 33 31 29 32 34 33 36 34 29 30 34 34 33 34 37 38 35 32 30 28 26 25 26 31 37 42 43 43 53 66 64 58 59 53 46 50 55 58 61 63 66 70 72 72
31 36 37 35 36 37 34 33 33 34 33 29 27 26 24 23 24 23 20 18 21 23 23 27 29 28 29 31 32 35 38 38 38 39 37 37 40 41 41 41 39 36 33 30 31 31 31 33 34 32 33 36 33 30 30 33 35 37 41 41 35 31 31 31 31 31 32 34 36 39 44 49 56 66 68 63 58 51 45 47 52 57 59 60 61 64 68 71
26 32 33 33 40 40 35 33 34 34 34 34 32 29 27 26 23 23 25 22 18 18 20 22 24 27 30 31 30 30 31 31 31 32 32 33 36 38 39 38 35 34 33 30 29 30 32 35 38 34 32 35 36 32 30 33 37 40 44 41 35 33 34 36 38 38 37 39 40 42 46 50 52 56 60 59 55 53 47 44 48 55 58 60 62 63 66 70